Location: *
(50.8512°N, 5.6907°E)
Time: 12:42:30
(UTC+00:00)

Cosmos 1908 - Visible Passes

Search period start: 06 August 2020 00:00
Search period end: 16 August 2020 00:00
Orbit: 513 x 529 km, 82.5° (Epoch: 05 August)

Date Brightness Start Highest point End Pass type
(mag) Time Alt. Az. Time Alt. Az. Time Alt. Az.
06 Aug 6.2 02:21:47 10° ESE 02:23:19 12° E 02:24:51 10° ENE visible
07 Aug 6.4 02:09:13 10° E 02:10:02 11° E 02:10:52 10° ENE visible
08 Aug 3.3 03:27:57 10° S 03:31:52 87° E 03:35:49 10° N visible
09 Aug 3.4 03:14:37 10° S 03:18:31 76° E 03:22:27 10° NNE visible
10 Aug 3.6 03:01:18 10° S 03:05:10 66° E 03:09:05 10° NNE visible
11 Aug 3.8 02:48:00 10° S 02:51:51 58° E 02:55:43 10° NNE visible
12 Aug 4.0 02:34:51 11° S 02:38:30 50° E 02:42:19 10° NNE visible
13 Aug 4.3 02:22:00 13° SSE 02:25:10 43° E 02:28:55 10° NNE visible
14 Aug 4.5 02:09:08 16° SSE 02:11:51 38° E 02:15:30 10° NNE visible
14 Aug 4.7 03:44:45 10° WSW 03:47:50 22° WNW 03:50:55 10° NNW visible
15 Aug 4.7 01:56:13 18° SE 01:58:31 33° E 02:02:04 10° NNE visible
15 Aug 4.6 03:31:22 11° WSW 03:34:25 24° WNW 03:37:40 10° NNW visible
